Content
SEND FEEDBACK

Daily
Averages
Monthly
Summary
Canada

BEACONSFIELD, QUEBEC


Home > North America > Canada > Quebec
Elevation: 118 feet     Latitude: 45 28N     Longitude: 073 45W

WEATHER
 
SELECT A DAY
Number of Records: 198,587;   Date Range: 1/1/95 - 8/31/14
 
SHARE

PRINT THIS DATA

[ ← Previous Day ]
WEATHER ALMANAC - MAY 4, 2013
[ Next Day → ]
[ °C ]   °F
Weather ElementAverageHighLow
Temperature63.5 °F75.2 °F (3:00 pm)48.2 °F (6:00 am)
Dewpoint39 °F42.8 °F (9:00 am)33.8 °F (7:00 pm)
Humidity42.7 %76 % (6:00 am)15 % (8:00 pm)
Barometer30.27 in30.34 in (7:00 am)30.18 in (11:00 pm)
Wind Speed5.2 mph8.1 mph (2:00 am)
Weather ElementAverage
Visibility24.8 mi
Wind DirectionESE (127 °)

Weather ElementTotal
Precipitation---
Heating Degree Days3.3 (Base 65)
Growing Degree Days11.7 (Base 50)
Averaged from 27 records on May 4, 2013
WEATHER CONDITIONS BREAKOUT
WIND DIRECTION BREAKOUT
WEATHER BY HOUR - MAY 4, 2013
[ °C ]   °F
Local TimeTemperatureDewpointHumidityBarometerVisibilityWind DirectionWind SpeedGust SpeedPrecipitationEventsConditions
1:00 AM57.2 °F41.0 °F55 %30.32 in15.0 miNNE (20°)3.5 mphClear
2:00 AM54.0 °F41.0 °F51 %30.31 in15.0 miNorth8.1 mph
2:00 AM53.6 °F41.0 °F62 %30.30 in15.0 miNorth (360°)8.1 mphClear
3:00 AM51.8 °F41.0 °F67 %30.30 in15.0 miNNE (20°)8.1 mphClear
4:00 AM51.8 °F41.0 °F67 %30.31 in15.0 miNorth (10°)6.9 mphClear
5:00 AM50.0 °F41.0 °F71 %30.31 in15.0 miNorth (10°)8.1 mphClear
6:00 AM48.2 °F41.0 °F76 %30.32 in30.0 miNNE (20°)8.1 mphClear
7:00 AM51.8 °F41.0 °F67 %30.34 in30.0 miNNE (20°)8.1 mphClear
8:00 AM54.0 °F42.0 °F53 %30.34 in28.0 miNNE (20°)6.9 mphClear
8:00 AM53.6 °F41.0 °F62 %30.34 in30.0 miNNE (30°)6.9 mphClear
9:00 AM57.2 °F42.8 °F59 %30.34 in30.0 miNNE (30°)4.6 mphClear
10:00 AM62.6 °F41.0 °F45 %30.34 in30.0 miNorth (10°)2.3 mphClear
11:00 AM66.2 °F41.0 °F40 %30.32 in30.0 miEast (80°)3.5 mphClear
12:00 PM69.8 °F42.8 °F38 %30.31 in30.0 miWest (260°)4.6 mphClear
1:00 PM71.6 °F35.6 °F27 %30.29 in30.0 miSSW (200°)3.5 mphClear
2:00 PM73.0 °F38.0 °F18 %30.27 in28.0 miWSW (250°)3.5 mphScattered Clouds
2:00 PM73.4 °F37.4 °F27 %30.27 in30.0 miWSW (240°)2.3 mphClear
3:00 PM75.2 °F37.4 °F25 %30.25 in30.0 miSSW (210°)6.9 mphClear
4:00 PM75.2 °F37.4 °F25 %30.22 in30.0 miVariable2.3 mphClear
5:00 PM75.2 °F35.6 °F24 %30.20 in30.0 miSSW (200°)5.8 mphClear
6:00 PM75.2 °F37.4 °F25 %30.19 in30.0 miSouth (170°)4.6 mphClear
7:00 PM75.2 °F33.8 °F22 %30.19 in30.0 miWest (260°)3.5 mphClear
8:00 PM72.0 °F35.0 °F15 %30.19 in28.0 miWNW (300°)3.5 mphClear
8:00 PM71.6 °F35.6 °F27 %30.19 in30.0 miNW (310°)3.5 mphClear
9:00 PM66.2 °F37.4 °F35 %30.19 in15.0 miNNW (330°)4.6 mphClear
10:00 PM66.2 °F35.6 °F32 %30.19 in15.0 miNE (40°)4.6 mphClear
11:00 PM62.6 °F37.4 °F39 %30.18 in15.0 miNNE (30°)3.5 mphClear
Hourly data recorded from CYUL, located miles away from Beaconsfield, Quebec







STORIES FROM OUR PARTNERS